When you browse on this site, cookies collect data to enhance your experience and personalize the content and advertising you see.
Visit our Privacy Policy to learn more. By continuing to use the site, you agree to this use of cookies and data.
  • In Spain
  • List of Countries
  • For 7 days
  • Water Temperature
  • Weather Map
  • Weather Widgets
  • user-avatar
    Login

    Hourly Weather Castelo Branco

    Today, 25 May, Monday

    Time Temperature Precipitation Wind Pressure Humidity
    00:00 +22°C° 0 mm 1 mps 735 mmHg 69%
    01:00 +22°C° 0 mm 1 mps 735 mmHg 70%
    02:00 +21°C° 0 mm 1 mps 734 mmHg 71%
    03:00 +21°C° 0 mm 1 mps 734 mmHg 72%
    04:00 +21°C° 0 mm 1 mps 734 mmHg 72%
    05:00 +21°C° 0 mm 1 mps 734 mmHg 73%
    06:00 +21°C° 0 mm 1 mps 735 mmHg 74%
    07:00 +24°C° 0 mm 1 mps 735 mmHg 66%
    08:00 +26°C° 0 mm 1 mps 735 mmHg 58%
    09:00 +28°C° 0 mm 1 mps 735 mmHg 50%
    10:00 +30°C° 0 mm 1 mps 735 mmHg 46%
    11:00 +32°C° 0 mm 1 mps 735 mmHg 41%
    12:00 +33°C° 0 mm 1 mps 735 mmHg 37%
    13:00 +33°C° 0 mm 1 mps 734 mmHg 36%
    14:00 +33°C° 0 mm 1 mps 734 mmHg 36%
    15:00 +33°C° 0 mm 1 mps 733 mmHg 35%
    16:00 +32°C° 0 mm 1 mps 733 mmHg 40%
    17:00 +30°C° 0 mm 2 mps 733 mmHg 45%
    18:00 +28°C° 0 mm 2 mps 732 mmHg 50%
    19:00 +27°C° 0 mm 2 mps 732 mmHg 52%
    20:00 +26°C° 0 mm 2 mps 733 mmHg 55%
    21:00 +25°C° 0 mm 2 mps 733 mmHg 57%
    22:00 +24°C° 0 mm 2 mps 733 mmHg 57%
    23:00 +23°C° 0 mm 2 mps 733 mmHg 57%

    Tomorrow, 26 May, Tuesday

    Time Temperature Precipitation Wind Pressure Humidity
    00:00 +23°C° 0 mm 2 mps 733 mmHg 56%
    01:00 +21°C° 0 mm 2 mps 733 mmHg 58%
    02:00 +20°C° 0 mm 3 mps 733 mmHg 59%
    03:00 +19°C° 0 mm 3 mps 733 mmHg 60%
    04:00 +19°C° 0 mm 3 mps 733 mmHg 61%
    05:00 +18°C° 0 mm 3 mps 733 mmHg 61%
    06:00 +18°C° 0 mm 3 mps 733 mmHg 61%
    07:00 +19°C° 0 mm 4 mps 734 mmHg 59%
    08:00 +21°C° 0 mm 4 mps 734 mmHg 56%
    09:00 +23°C° 0 mm 4 mps 735 mmHg 53%
    10:00 +26°C° 0 mm 4 mps 734 mmHg 50%
    11:00 +28°C° 0 mm 4 mps 734 mmHg 47%
    12:00 +30°C° 0 mm 4 mps 734 mmHg 44%
    13:00 +30°C° 0 mm 4 mps 734 mmHg 42%
    14:00 +32°C° 0 mm 4 mps 733 mmHg 40%
    15:00 +33°C° 0 mm 3 mps 733 mmHg 38%
    16:00 +31°C° 0.1 mm 3 mps 733 mmHg 40%
    17:00 +30°C° 0.1 mm 3 mps 732 mmHg 42%
    18:00 +30°C° 0.1 mm 3 mps 732 mmHg 43%
    19:00 +28°C° 0.1 mm 3 mps 732 mmHg 50%
    20:00 +26°C° 0.1 mm 3 mps 733 mmHg 56%
    21:00 +24°C° 0.1 mm 3 mps 733 mmHg 62%
    22:00 +23°C° 0 mm 2 mps 733 mmHg 66%
    23:00 +21°C° 0 mm 2 mps 733 mmHg 70%

    Day after tomorrow, 27 May, Wednesday

    Time Temperature Precipitation Wind Pressure Humidity
    00:00 +20°C° 0 mm 2 mps 732 mmHg 74%
    01:00 +20°C° 0 mm 2 mps 732 mmHg 75%
    02:00 +19°C° 0 mm 2 mps 732 mmHg 76%
    03:00 +19°C° 0 mm 2 mps 732 mmHg 77%
    04:00 +19°C° 0 mm 2 mps 733 mmHg 76%
    05:00 +19°C° 0 mm 2 mps 733 mmHg 75%
    06:00 +19°C° 0 mm 3 mps 733 mmHg 74%
    07:00 +21°C° 0 mm 3 mps 733 mmHg 65%
    08:00 +23°C° 0 mm 4 mps 733 mmHg 55%
    09:00 +26°C° 0 mm 4 mps 734 mmHg 45%
    10:00 +28°C° 0 mm 4 mps 734 mmHg 41%
    11:00 +29°C° 0 mm 4 mps 733 mmHg 37%
    12:00 +32°C° 0 mm 5 mps 733 mmHg 33%
    13:00 +33°C° 0 mm 4 mps 733 mmHg 32%
    14:00 +33°C° 0 mm 4 mps 733 mmHg 30%
    15:00 +34°C° 0 mm 4 mps 732 mmHg 29%
    16:00 +34°C° 0 mm 3 mps 732 mmHg 31%
    17:00 +33°C° 0 mm 3 mps 732 mmHg 32%
    18:00 +33°C° 0 mm 3 mps 732 mmHg 33%
    19:00 +29°C° 0 mm 3 mps 732 mmHg 38%
    20:00 +27°C° 0 mm 2 mps 732 mmHg 42%
    21:00 +25°C° 0 mm 2 mps 732 mmHg 46%
    22:00 +24°C° 0 mm 2 mps 732 mmHg 47%
    23:00 +24°C° 0 mm 2 mps 732 mmHg 47%

    28 May, Thursday

    Time Temperature Precipitation Wind Pressure Humidity
    00:00 +23°C° 0 mm 2 mps 732 mmHg 48%
    01:00 +22°C° 0 mm 3 mps 732 mmHg 50%
    02:00 +21°C° 0 mm 3 mps 732 mmHg 53%
    03:00 +20°C° 0 mm 3 mps 732 mmHg 55%
    04:00 +20°C° 0 mm 3 mps 732 mmHg 57%
    05:00 +20°C° 0 mm 3 mps 732 mmHg 59%
    06:00 +19°C° 0 mm 3 mps 732 mmHg 61%
    07:00 +21°C° 0 mm 3 mps 733 mmHg 55%
    08:00 +24°C° 0 mm 3 mps 733 mmHg 49%
    09:00 +26°C° 0 mm 4 mps 733 mmHg 44%
    10:00 +28°C° 0 mm 3 mps 733 mmHg 39%
    11:00 +30°C° 0 mm 3 mps 733 mmHg 33%
    12:00 +33°C° 0 mm 3 mps 733 mmHg 28%
    13:00 +33°C° 0 mm 3 mps 732 mmHg 27%
    14:00 +34°C° 0 mm 3 mps 732 mmHg 26%
    15:00 +35°C° 0 mm 2 mps 731 mmHg 24%
    16:00 +34°C° 0 mm 2 mps 731 mmHg 26%
    17:00 +34°C° 0 mm 2 mps 731 mmHg 27%
    18:00 +32°C° 0 mm 1 mps 731 mmHg 28%
    19:00 +30°C° 0 mm 1 mps 731 mmHg 35%
    20:00 +27°C° 0 mm 1 mps 731 mmHg 42%
    21:00 +25°C° 0 mm 1 mps 731 mmHg 49%
    22:00 +24°C° 0 mm 1 mps 731 mmHg 51%
    23:00 +24°C° 0 mm 1 mps 731 mmHg 53%

    29 May, Friday

    Time Temperature Precipitation Wind Pressure Humidity
    00:00 +23°C° 0 mm 1 mps 731 mmHg 55%
    01:00 +23°C° 0 mm 1 mps 731 mmHg 54%
    02:00 +23°C° 0 mm 1 mps 731 mmHg 54%
    03:00 +22°C° 0 mm 1 mps 730 mmHg 53%
    04:00 +22°C° 0 mm 1 mps 730 mmHg 53%
    05:00 +22°C° 0 mm 1 mps 730 mmHg 53%
    06:00 +22°C° 0 mm 1 mps 730 mmHg 53%
    07:00 +24°C° 0 mm 1 mps 731 mmHg 49%
    08:00 +26°C° 0 mm 1 mps 731 mmHg 44%
    09:00 +27°C° 0 mm 2 mps 731 mmHg 39%
    10:00 +29°C° 0 mm 1 mps 731 mmHg 35%
    11:00 +31°C° 0 mm 1 mps 731 mmHg 32%
    12:00 +34°C° 0 mm 1 mps 731 mmHg 28%
    13:00 +34°C° 0 mm 1 mps 730 mmHg 28%
    14:00 +35°C° 0 mm 2 mps 730 mmHg 28%
    15:00 +35°C° 0 mm 2 mps 729 mmHg 28%
    16:00 +33°C° 0 mm 3 mps 729 mmHg 32%
    17:00 +31°C° 0 mm 3 mps 729 mmHg 37%
    18:00 +29°C° 0 mm 4 mps 729 mmHg 42%
    19:00 +28°C° 0 mm 3 mps 729 mmHg 46%
    20:00 +26°C° 0 mm 2 mps 729 mmHg 50%
    21:00 +25°C° 0 mm 2 mps 729 mmHg 55%
    22:00 +24°C° 0 mm 1 mps 729 mmHg 57%
    23:00 +23°C° 0 mm 1 mps 729 mmHg 59%

    30 May, Saturday

    Time Temperature Precipitation Wind Pressure Humidity
    00:00 +23°C° 0 mm 1 mps 729 mmHg 61%
    01:00 +22°C° 0 mm 1 mps 729 mmHg 62%
    02:00 +22°C° 0 mm 1 mps 728 mmHg 63%
    03:00 +22°C° 0 mm 1 mps 728 mmHg 64%
    04:00 +22°C° 0 mm 1 mps 728 mmHg 64%
    05:00 +22°C° 0 mm 1 mps 728 mmHg 65%
    06:00 +20°C° 0 mm 0 mps 728 mmHg 65%
    07:00 +23°C° 0 mm 0 mps 729 mmHg 57%
    08:00 +26°C° 0 mm 0 mps 729 mmHg 48%
    09:00 +29°C° 0 mm 0 mps 729 mmHg 40%
    10:00 +32°C° 0 mm 1 mps 729 mmHg 35%
    11:00 +33°C° 0 mm 1 mps 729 mmHg 31%
    12:00 +36°C° 0 mm 2 mps 729 mmHg 26%
    13:00 +35°C° 0 mm 2 mps 729 mmHg 27%
    14:00 +35°C° 0 mm 3 mps 728 mmHg 27%
    15:00 +35°C° 0 mm 3 mps 728 mmHg 28%
    16:00 +34°C° 0 mm 3 mps 728 mmHg 31%
    17:00 +33°C° 0 mm 3 mps 728 mmHg 34%
    18:00 +32°C° 0 mm 4 mps 728 mmHg 37%
    19:00 +29°C° 0 mm 3 mps 728 mmHg 43%
    20:00 +27°C° 0 mm 2 mps 728 mmHg 49%
    21:00 +25°C° 0 mm 1 mps 728 mmHg 56%
    22:00 +24°C° 0 mm 1 mps 728 mmHg 56%
    23:00 +24°C° 0 mm 1 mps 728 mmHg 57%
    Show more